Location: Caltech
(34.1382°N, 118.1253°W)
Time: 03:07:45
(UTC-07:00)

Iridium 3 - Visible Passes

Search period start: 04 July 2015 00:00
Search period end: 14 July 2015 00:00
Orbit: 776 x 779 km, 86.4° (Epoch: 03 July)

Date Brightness Start Highest point End Pass type
(mag) Time Alt. Az. Time Alt. Az. Time Alt. Az.
09 Jul 8.5 05:03:41 10° NE 05:06:36 16° ENE 05:09:47 10° ESE visible
12 Jul 8.1 05:02:53 10° NNE 05:06:55 23° E 05:11:05 10° SE visible
13 Jul 8.6 04:31:21 10° NE 04:33:00 12° ENE 04:35:00 10° E visible
